LRFT Weather Reports


time (UTC)temp
F
wind
direction
speed
knots
gust
knots
rain 1hr
in
rain 24hr
in
rain mn
in
humidity
%
barometer
mb
20260904144900 88 320 7.8 0.0 0.00 0.00 0.00 29 1015.0
20260904143400 88 320 7.8 0.0 0.00 0.00 0.00 29 1015.0
20260904141856 88 320 7.8 0.0 0.00 0.00 0.00 29 1015.0
20260904140409 88 320 7.8 0.0 0.00 0.00 0.00 29 1015.0
20260904134900 86 320 9.6 0.0 0.00 0.00 0.00 33 1015.0
20260904133401 86 320 9.6 0.0 0.00 0.00 0.00 33 1015.0
20260904131859 86 320 9.6 0.0 0.00 0.00 0.00 33 1015.0
20260904130400 86 320 9.6 0.0 0.00 0.00 0.00 33 1015.0
20260904124859 84 300 9.6 0.0 0.00 0.00 0.00 33 1016.0
20260904123359 84 300 9.6 0.0 0.00 0.00 0.00 33 1016.0
20260904121901 84 300 9.6 0.0 0.00 0.00 0.00 33 1016.0
20260904120400 84 300 9.6 0.0 0.00 0.00 0.00 33 1016.0
20260904114900 84 280 9.6 0.0 0.00 0.00 0.00 37 1016.0
20260904113400 84 280 9.6 0.0 0.00 0.00 0.00 37 1016.0
20260904111857 84 280 9.6 0.0 0.00 0.00 0.00 37 1016.0
20260904110523 0 0.0 0.0 0.00 0.00 0.00
20260904104949 0 0.0 0.0 0.00 0.00 0.00
20260904103512 0 0.0 0.0 0.00 0.00 0.00
20260904101906 82 280 7.8 0.0 0.00 0.00 0.00 42 1017.0
20260904100406 82 280 7.8 0.0 0.00 0.00 0.00 42 1017.0
20260904094858 81 310 6.1 0.0 0.00 0.00 0.00 45 1017.0
20260904093400 81 310 6.1 0.0 0.00 0.00 0.00 45 1017.0
20260904091859 81 310 6.1 0.0 0.00 0.00 0.00 45 1017.0
20260904090359 81 310 6.1 0.0 0.00 0.00 0.00 45 1017.0
20260904084900 75 290 6.1 0.0 0.00 0.00 0.00 54 1017.0
20260904083400 75 290 6.1 0.0 0.00 0.00 0.00 54 1017.0
20260904081903 75 290 6.1 0.0 0.00 0.00 0.00 54 1017.0
20260904080401 75 290 6.1 0.0 0.00 0.00 0.00 54 1017.0
20260904075021 0 0.0 0.0 0.00 0.00 0.00
20260904073401 72 280 6.1 0.0 0.00 0.00 0.00 61 1017.0
20260904071859 72 280 6.1 0.0 0.00 0.00 0.00 61 1017.0
20260904070400 72 280 6.1 0.0 0.00 0.00 0.00 61 1017.0
20260904064900 64 280 6.1 0.0 0.00 0.00 0.00 73 1017.0
20260904063400 64 280 6.1 0.0 0.00 0.00 0.00 73 1017.0
20260904061901 64 280 6.1 0.0 0.00 0.00 0.00 73 1017.0
20260904060400 64 280 6.1 0.0 0.00 0.00 0.00 73 1017.0
20260904054900 63 40 4.3 0.0 0.00 0.00 0.00 77 1016.0
20260904053400 63 40 4.3 0.0 0.00 0.00 0.00 77 1016.0
20260904051900 63 40 4.3 0.0 0.00 0.00 0.00 77 1016.0
20260904050400 63 40 4.3 0.0 0.00 0.00 0.00 77 1016.0
20260904044900 57 330 5.2 0.0 0.00 0.00 0.00 82 1016.0
20260904043401 57 330 5.2 0.0 0.00 0.00 0.00 82 1016.0
20260904041857 57 330 5.2 0.0 0.00 0.00 0.00 82 1016.0
20260904040400 57 330 5.2 0.0 0.00 0.00 0.00 82 1016.0
20260904034856 57 260 9.6 0.0 0.00 0.00 0.00 88 1016.0
20260904033400 57 260 9.6 0.0 0.00 0.00 0.00 88 1016.0
20260904031900 57 260 9.6 0.0 0.00 0.00 0.00 88 1016.0
20260904030359 57 260 9.6 0.0 0.00 0.00 0.00 88 1016.0
20260904024854 63 4.3 0.0 0.00 0.00 0.00 100 1016.0
20260904023400 0 0.0 0.0 0.00 0.00 0.00
20260904021856 0 0.0 0.0 0.00 0.00 0.00
20260904020400 0 0.0 0.0 0.00 0.00 0.00
20260904014933 0 0.0 0.0 0.00 0.00 0.00
20260904013400 0 0.0 0.0 0.00 0.00 0.00
20260904011900 0 0.0 0.0 0.00 0.00 0.00
20260904010400 0 0.0 0.0 0.00 0.00 0.00
20260904004858 64 2.6 0.0 0.00 0.00 0.00 88 1016.0
20260904003400 64 2.6 0.0 0.00 0.00 0.00 88 1016.0
20260904001859 64 2.6 0.0 0.00 0.00 0.00 88 1016.0
20260904000403 64 2.6 0.0 0.00 0.00 0.00 88 1016.0
20260903234900 0 0.0 0.0 0.00 0.00 0.00
20260903233359 0 0.0 0.0 0.00 0.00 0.00
20260903231922 0 0.0 0.0 0.00 0.00 0.00
20260903230357 0 0.0 0.0 0.00 0.00 0.00
20260903224857 0 0.0 0.0 0.00 0.00 0.00
20260903223359 0 0.0 0.0 0.00 0.00 0.00
20260903221900 0 0.0 0.0 0.00 0.00 0.00
20260903220400 0 0.0 0.0 0.00 0.00 0.00
20260903214859 68 2.6 0.0 0.00 0.00 0.00 60 1017.0
20260903213408 68 2.6 0.0 0.00 0.00 0.00 60 1017.0
20260903211903 68 2.6 0.0 0.00 0.00 0.00 60 1017.0
20260903210401 68 2.6 0.0 0.00 0.00 0.00 60 1017.0
20260903205018 0 0.0 0.0 0.00 0.00 0.00
20260903203400 70 80 4.3 0.0 0.00 0.00 0.00 53 1016.0
20260903201900 70 80 4.3 0.0 0.00 0.00 0.00 53 1016.0
20260903200400 70 80 4.3 0.0 0.00 0.00 0.00 53 1016.0
20260903194900 70 80 4.3 0.0 0.00 0.00 0.00 53 1016.0
20260903193401 70 90 6.1 0.0 0.00 0.00 0.00 46 1016.0
20260903191859 70 90 6.1 0.0 0.00 0.00 0.00 46 1016.0
20260903190400 70 90 6.1 0.0 0.00 0.00 0.00 46 1016.0
20260903184900 75 10 6.1 0.0 0.00 0.00 0.00 47 1016.0
20260903183401 75 10 6.1 0.0 0.00 0.00 0.00 47 1016.0
20260903181859 75 10 6.1 0.0 0.00 0.00 0.00 47 1016.0
20260903180400 75 10 6.1 0.0 0.00 0.00 0.00 47 1016.0
20260903174900 79 20 7.8 0.0 0.00 0.00 0.00 39 1015.0
20260903173401 79 20 7.8 0.0 0.00 0.00 0.00 39 1015.0
20260903171901 79 20 7.8 0.0 0.00 0.00 0.00 39 1015.0
20260903170401 0 0.0 0.0 0.00 0.00 0.00
20260903164900 84 20 9.6 0.0 0.00 0.00 0.00 35 1015.0
20260903163400 84 20 9.6 0.0 0.00 0.00 0.00 35 1015.0
20260903161900 84 20 9.6 0.0 0.00 0.00 0.00 35 1015.0
20260903160401 84 20 9.6 0.0 0.00 0.00 0.00 35 1015.0
20260903154901 86 10 9.6 0.0 0.00 0.00 0.00 33 1015.0
20260903153401 86 10 9.6 0.0 0.00 0.00 0.00 33 1015.0
20260903151901 86 10 9.6 0.0 0.00 0.00 0.00 33 1015.0
20260903150401 86 10 9.6 0.0 0.00 0.00 0.00 33 1015.0